CZ-4C DEB, 40342

Orbit data source: Space-Track

CZ-4C DEB, 40342 is space debris in LEO originally from a launch on Wed, 10 Dec 2014 UTC launched from the Jiuquan Satellite Launch Center, China (JSC). Debris objects in space refer to the collection of defunct objects orbiting the Earth. Examples of debris include non-operational satellites, rocket bodies, and fragments generated from explosions, collisions, or faulty payload assembly.

Loading next visibility...
Identifier
40342, 2014-080E
Orbit
LEO
Country
Flag of CNCN / PRC
Related business
Manufacturer
CAST
Mission
Spacecraft
Bus & Motor
Unknown
Mass
Unknown
Launch date (UTC)
2014-12-10 (12 years ago)
Launch vehicle
Unknown
Launch site
Jiuquan Satellite Launch Center, China (JSC)
Object type
Payload
Rocket body
Debris
Shape & HBR
Unknown shape, 2.3 m
Radar Cross Section
Large (>1 m²)

Expand to show TLE details & history
Last TLE update: 2 days ago

TLE from 2 days ago
0 CZ-4C DEB
1 40342U 14080E   26171.36437550 -.00000055  00000-0  39683-4 0  9990
2 40342  63.3895 324.2741 0377587  10.3307 350.5206 13.44653039565705
Epoch: 2026-06-20T08:44Z
TLE epoch observation values (Epoch: 2026-06-20T08:44:42.043Z)
Latitude
-0.00002°
Longitude
-75.48115°
Altitude
815.832 km
Speed
7.583 km/s
True Right ascension
21h 37m 05s
True Declination
0° 00' 00"
Sunlit
Object was in full shadow at epoch
Visualization orbit readout
Latitude
Unknown
Longitude
Unknown
Altitude
Unknown
Speed
Unknown
Apparent Right ascension
Unknown
Apparent Declination
Unknown
Sunlit
N/A
Visualization observer readout
Local Sidereal Time
23:18:42
Azimuth
Unknown
Elevation
Unknown
Doppler factor
Unknown
Orbital elements
Apogee altitude
1,372.843 km
Perigee altitude
808.807 km
Semi-major axis
7,468.962 km
Eccentricity
0.03776
Inclination
63.3895°
RAAN
324.2741°
Arg. of periapsis
10.3307°
True anomaly
349.7733°
Mean anomaly
350.5206°
Eccentric anomaly
350.15053°
Mean motion
3.36243 °/min
Orbital period
107.07 mins
BSTAR
0.000039683
Loading maneuver chart data...
Computing Atmospheric mass density...
Loading historical data...
Loading historical data...
Loading historical data...
Loading historical data...
Loading historical data...
Loading historical data...
Loading historical data...

Documentation

Showing up to 5 results
|